Wetbulb
59.89 59.37 60.05 60.53 61.08 63.32 64.56 64.15 63.89 63.09 62.11 60.80 59.28 58.11 57.81 56.28 57.73 60.58 61.84 62.94 65.90 67.87 67.35 66.64 65.66 64.98 64.18 63.78 63.19 62.35 61.66 60.71 60.37 60.01 59.89 59.62 59.41 59.51 59.25 59.38 59.21 59.00 58.42
58.31 59.03 59.67 60.82 60.53 62.70 64.54 64.10 62.68 62.17 60.91 60.07 58.62 57.87 58.18 56.99 58.01 60.91 61.96 61.87 64.36 66.61 67.06 66.12 65.30 64.40 63.68 63.24 62.58 61.83 61.01 60.39 60.40 59.66 59.31 58.94 59.34 58.73 58.43 57.98 58.09 57.69 57.54
56.28 58.18 57.11 57.87 58.07 59.15 62.03 61.37 60.99 60.88 59.84 60.41 59.80 60.46 61.04 59.09 60.05 61.75 61.78 61.82 62.86 63.99 65.71 66.08 65.09 64.54 63.68 63.20 62.60 61.36 60.73 60.09 60.19 59.88 59.34 58.75 58.46 58.05 58.17 57.74 56.87 56.66 56.46
53.29 56.16 55.65 55.39 55.88 58.90 60.66 59.12 59.35 58.93 55.39 56.05 58.28 58.55 58.28 60.97 61.80 61.95 61.74 61.81 62.21 62.91 64.18 64.98 65.23 64.45 63.61 63.37 63.06 61.85 60.95 59.70 59.30 58.72 58.90 58.52 58.28 57.59 56.79 56.68 56.39 55.68 55.42
53.44 55.18 55.24 54.61 55.41 56.40 55.81 55.93 55.79 56.78 54.38 56.58 55.28 54.77 54.87 58.46 60.67 61.52 61.25 61.30 61.63 62.07 62.69 63.52 63.16 63.08 63.24 63.29 62.92 61.94 60.62 59.67 59.08 58.66 58.15 57.63 57.04 56.65 56.43 56.06 55.34 54.76 54.43
52.22 54.01 54.79 54.26 54.75 54.53 54.06 54.39 52.78 54.02 57.17 56.39 55.89 53.62 53.60 54.92 56.89 59.11 60.01 60.32 60.42 61.01 61.27 62.07 61.65 61.18 62.04 62.79 62.52 61.67 60.92 59.90 58.69 58.32 57.55 56.51 55.85 56.56 56.08 55.13 54.31 53.59 53.15
50.43 50.96 53.38 53.76 54.35 54.07 53.44 55.34 52.57 56.26 55.12 54.55 52.46 51.94 51.98 52.66 53.92 54.81 57.35 58.62 58.09 57.82 58.36 60.11 60.05 58.81 60.19 62.27 61.79 61.12 60.54 59.76 58.60 57.63 56.75 55.57 55.58 56.33 55.53 54.76 53.79 52.50 51.87
50.30 51.23 51.79 53.78 56.68 54.25 53.11 52.27 54.91 55.54 53.95 54.49 52.26 50.97 49.42 51.31 51.57 51.50 53.27 56.59 57.41 57.44 57.09 56.87 56.49 56.46 57.03 57.12 58.00 60.61 59.43 58.92 58.40 57.09 55.69 55.01 55.63 55.64 54.67 53.62 52.66 51.87 51.50
49.66 49.86 51.28 54.00 55.84 56.69 56.16 53.26 54.08 54.94 53.28 53.78 51.54 50.75 46.72 45.46 47.79 49.64 49.29 50.75 54.12 55.33 55.34 55.42 56.01 55.53 54.79 54.89 57.50 57.84 58.71 57.71 56.85 56.15 55.53 55.50 55.00 54.86 53.76 52.94 52.06 51.33 51.02
49.14 49.20 50.47 51.74 55.18 56.14 55.77 55.17 54.68 54.28 54.87 52.30 52.18 52.70 50.53 48.74 47.26 44.49 47.93 48.05 50.39 52.35 53.06 53.57 53.21 52.14 51.16 50.25 51.30 52.79 54.33 55.17 55.35 55.97 55.64 55.17 54.77 54.16 53.58 53.03 51.69 51.10 50.73
47.89 48.53 48.73 49.60 50.86 54.56 55.30 54.63 53.10 53.17 54.33 53.79 52.78 51.24 49.21 48.20 46.80 45.65 43.70 44.86 47.26 49.42 49.35 49.83 48.68 47.75 47.83 48.41 48.89 51.03 52.35 53.26 54.71 54.22 54.46 54.58 54.45 54.14 53.15 52.09 51.31 50.63 50.34
47.58 48.00 48.38 48.20 49.14 50.66 53.23 54.58 53.91 53.62 54.22 53.56 53.34 49.93 49.43 47.87 45.97 44.70 42.06 42.68 44.02 43.80 46.53 46.10 46.62 46.32 45.68 45.51 47.65 50.80 51.47 51.44 52.14 52.58 53.40 53.73 53.57 52.96 52.19 51.35 50.50 50.23 49.86
46.35 47.03 47.40 47.24 47.62 49.03 50.78 52.10 52.32 53.18 53.24 53.57 52.79 52.89 51.70 50.14 48.24 46.83 44.38 43.31 42.25 41.63 43.88 44.04 44.36 45.13 45.68 45.21 46.41 47.61 48.58 49.57 50.89 52.05 52.40 52.78 51.89 50.84 50.07 49.56 49.42 48.89 49.20
46.48 47.88 47.80 47.69 47.78 48.33 49.53 50.59 52.00 52.69 52.75 52.99 52.97 53.71 52.36 50.94 49.41 47.05 45.26 42.36 39.31 37.91 39.16 42.02 43.17 43.78 44.23 44.19 45.85 46.81 46.32 48.68 48.90 49.31 50.02 49.82 48.47 47.02 46.44 46.55 46.79 47.19 47.64
47.08 48.35 48.68 49.34 47.94 47.92 48.64 49.60 51.12 52.33 53.30 53.09 52.52 52.60 51.99 51.59 50.37 49.85 48.76 47.07 45.32 37.96 38.30 39.13 39.87 41.93 41.77 42.92 44.28 42.99 41.84 46.91 46.82 46.48 45.68 44.86 43.75 42.83 42.82 43.67 44.49 45.15 45.31
47.90 47.85 48.89 49.28 48.51 47.76 48.16 48.61 49.57 51.76 51.93 53.29 53.23 52.87 52.35 50.41 50.62 50.12 49.23 48.32 47.37 44.83 42.19 39.60 39.10 38.87 40.79 41.29 43.74 39.12 38.89 44.08 43.78 43.18 42.50 41.92 41.33 41.19 41.17 42.49 43.42 43.34 43.13
46.30 45.88 46.00 46.19 46.76 47.63 48.65 49.14 50.13 51.06 51.31 52.03 52.67 52.46 51.95 50.64 50.01 48.00 46.80 46.87 43.50 44.26 40.23 36.14 37.17 36.69 37.41 37.80 38.50 35.61 37.45 34.67 35.84 41.32 41.31 40.74 40.66 40.58 40.63 41.92 42.19 41.35 41.50
45.23 45.17 46.05 47.66 48.36 48.42 48.92 49.18 49.25 49.49 50.42 51.30 51.72 51.38 50.86 49.88 49.69 48.57 47.67 46.31 44.93 42.42 39.58 34.95 34.55 33.93 34.00 34.39 32.44 32.74 33.51 33.72 31.11 36.18 38.77 39.65 39.93 40.04 40.11 41.62 41.38 41.03 40.57
42.73 43.67 45.45 47.53 49.61 48.71 48.51 48.67 49.35 49.36 50.62 51.02 50.97 50.43 49.35 48.74 46.85 45.39 46.17 44.81 42.68 41.28 39.60 36.23 32.85 33.00 32.08 30.58 30.62 30.74 29.04 28.56 31.50 35.22 37.86 39.51 39.92 38.94 39.69 40.18 40.56 39.84 39.60
41.85 42.54 44.11 48.31 49.21 49.41 48.78 48.98 49.90 49.97 49.38 48.84 49.71 49.87 48.59 48.21 46.76 45.63 44.97 43.47 41.36 38.64 37.23 34.86 32.73 31.62 31.89 30.51 30.00 28.83 27.10 27.39 27.83 31.42 34.05 34.37 35.80 36.58 37.64 38.41 38.15 37.76 36.89
41.42 42.38 43.22 45.01 45.68 48.35 49.06 48.00 47.50 46.02 44.50 43.34 43.56 45.20 44.98 46.32 46.47 46.48 44.38 41.83 40.21 37.57 36.08 33.85 31.87 30.96 29.87 28.91 28.19 27.31 26.47 26.34 26.06 26.74 26.30 26.38 26.32 25.90 26.72 33.70 33.64 34.95 35.60
40.77 41.26 42.00 43.25 44.48 45.87 46.85 46.71 44.70 43.93 43.14 42.79 41.24 41.47 42.14 42.71 43.79 44.51 43.31 42.28 40.34 36.95 34.16 33.40 31.48 31.09 29.45 28.81 26.68 25.84 25.65 23.99 22.82 26.02 24.46 24.17 25.15 24.78 26.61 26.57 32.51 34.61 35.87
39.75 39.82 40.63 41.83 42.26 43.60 44.51 44.18 43.13 41.48 40.51 40.04 39.99 40.01 40.15 41.17 41.18 40.88 41.91 41.25 40.56 39.32 38.09 33.22 30.56 28.52 26.00 26.51 26.20 25.28 24.74 23.71 23.76 25.25 25.05 23.97 25.41 24.55 25.95 28.11 33.46 34.30 34.97
38.31 38.65 39.20 39.77 40.33 41.70 42.93 42.10 40.91 38.82 37.79 37.51 37.61 37.14 36.57 35.97 36.35 34.94 33.25 31.28 30.31 30.47 31.53 30.79 29.20 26.41 26.56 26.40 27.41 27.23 25.52 24.57 25.50 25.37 25.55 21.60 23.61 23.57 24.70 25.41 31.55 32.78 34.27
37.62 37.92 38.51 38.58 38.61 39.15 40.94 40.41 38.25 36.18 34.75 34.16 34.74 35.04 35.00 34.95 37.25 35.84 31.05 29.80 30.10 30.96 35.30 35.31 34.57 35.04 35.01 34.30 30.71 27.13 24.60 23.32 22.72 23.66 24.58 23.67 23.66 23.89 24.71 24.30 25.44 31.17 33.06
36.67 37.35 36.84 37.23 39.02 37.77 39.51 38.43 36.43 34.89 33.03 33.30 34.56 35.35 37.41 35.65 36.92 35.28 30.46 29.17 28.09 27.78 30.03 29.74 29.90 31.69 31.75 32.30 33.02 27.07 26.09 21.77 23.48 21.12 25.30 23.81 24.55 23.08 20.80 25.81 26.39 26.71 25.76
MSLP
1015.97 1015.81 1015.78 1015.78 1015.78 1015.79 1015.77 1015.86 1015.95 1016.10 1016.18 1016.32 1016.58 1016.55 1016.63 1017.07 1017.26 1017.28 1017.35 1017.41 1017.49 1017.63 1018.03 1018.38 1018.73 1019.07 1019.34 1019.51 1019.98 1020.38 1020.73 1021.11 1021.38 1021.58 1021.79 1021.98 1022.10 1022.19 1022.28 1022.37 1022.49 1022.60 1022.77
1015.96 1015.87 1015.84 1015.75 1015.68 1015.61 1015.71 1015.73 1015.91 1016.10 1016.23 1016.59 1016.92 1017.58 1017.07 1017.14 1016.97 1017.14 1017.12 1017.25 1017.47 1017.54 1017.83 1018.40 1018.80 1019.28 1019.52 1019.64 1020.06 1020.44 1020.73 1021.18 1021.60 1021.78 1021.93 1022.08 1022.32 1022.44 1022.49 1022.58 1022.86 1022.98 1023.17
1016.09 1016.00 1016.01 1016.03 1015.83 1015.73 1015.68 1015.99 1016.12 1016.04 1016.32 1016.51 1016.91 1017.19 1016.70 1016.76 1016.89 1017.04 1017.17 1017.05 1017.30 1017.55 1017.75 1018.35 1018.80 1019.09 1019.55 1019.65 1020.09 1020.44 1020.84 1021.10 1021.60 1021.97 1022.22 1022.30 1022.51 1022.64 1022.80 1022.99 1023.22 1023.34 1023.46
1016.09 1016.01 1016.17 1016.14 1015.94 1015.90 1015.80 1016.11 1016.27 1016.38 1016.40 1016.50 1016.74 1016.71 1016.94 1017.00 1016.19 1016.75 1016.94 1016.94 1017.08 1017.62 1017.82 1018.36 1018.48 1018.82 1019.30 1019.53 1020.05 1020.39 1020.78 1021.26 1021.70 1021.98 1022.29 1022.55 1022.77 1022.90 1023.00 1023.19 1023.34 1023.50 1023.61
1016.12 1016.02 1015.98 1015.94 1015.96 1015.96 1016.03 1016.22 1016.40 1016.47 1016.66 1016.79 1016.84 1016.82 1017.08 1016.92 1016.62 1016.86 1016.52 1016.23 1016.97 1017.37 1017.61 1018.19 1018.53 1019.06 1019.46 1019.46 1019.84 1020.26 1020.64 1021.32 1021.60 1022.06 1022.42 1022.77 1022.98 1023.08 1023.09 1023.36 1023.51 1023.67 1023.75
1016.04 1015.94 1015.83 1015.84 1015.95 1016.10 1015.97 1016.11 1016.32 1016.42 1016.43 1016.70 1017.09 1017.45 1017.54 1017.44 1017.25 1017.09 1016.94 1016.66 1017.04 1017.42 1017.46 1018.10 1018.73 1019.14 1019.36 1019.53 1019.77 1020.22 1020.49 1021.04 1021.56 1022.05 1022.45 1022.83 1023.04 1023.08 1023.24 1023.45 1023.67 1023.83 1023.96
1015.87 1015.86 1015.73 1015.73 1015.72 1015.98 1015.84 1015.86 1016.15 1016.40 1016.68 1016.74 1017.37 1017.90 1017.53 1017.54 1017.42 1017.46 1017.34 1017.13 1017.15 1017.48 1017.83 1017.95 1018.35 1018.74 1019.35 1019.54 1019.72 1020.20 1020.55 1020.80 1021.28 1021.96 1022.53 1022.79 1023.01 1023.09 1023.43 1023.61 1023.70 1023.93 1024.03
1015.68 1015.62 1015.52 1015.52 1015.58 1015.74 1015.84 1015.88 1015.80 1016.17 1016.54 1016.85 1017.11 1017.59 1017.79 1017.88 1017.72 1017.84 1017.90 1017.61 1017.33 1017.52 1017.88 1018.09 1018.62 1019.02 1019.11 1019.51 1019.81 1020.17 1020.52 1021.01 1021.35 1021.87 1022.61 1022.74 1022.79 1023.05 1023.42 1023.76 1023.94 1023.93 1024.02
1015.43 1015.39 1015.25 1015.19 1015.24 1015.35 1015.36 1015.54 1015.58 1015.66 1016.10 1016.50 1016.78 1016.87 1017.33 1017.62 1018.06 1018.02 1018.23 1017.92 1017.77 1017.82 1017.87 1018.17 1018.42 1018.90 1019.16 1019.67 1020.15 1020.38 1020.54 1020.74 1021.43 1021.92 1022.39 1022.60 1022.78 1023.09 1023.36 1023.64 1023.89 1024.08 1024.05
1015.03 1014.94 1014.92 1014.87 1015.00 1014.94 1014.88 1014.96 1014.99 1015.09 1015.49 1015.96 1016.46 1016.62 1017.04 1017.11 1017.90 1018.65 1018.57 1018.07 1018.04 1018.28 1018.35 1018.25 1018.67 1019.08 1019.44 1019.85 1020.12 1020.40 1020.61 1021.09 1021.37 1021.78 1022.09 1022.47 1022.68 1022.95 1023.22 1023.35 1023.67 1023.87 1024.02
1014.82 1014.67 1014.62 1014.52 1014.60 1014.67 1014.60 1014.60 1014.65 1014.81 1014.85 1015.21 1015.64 1016.13 1016.95 1017.22 1017.27 1017.42 1018.14 1018.45 1018.98 1018.66 1018.98 1018.91 1018.89 1019.22 1019.44 1020.07 1019.97 1020.73 1020.70 1021.19 1021.51 1021.74 1022.04 1022.34 1022.52 1022.61 1022.92 1023.42 1023.76 1023.69 1023.78
1014.59 1014.34 1014.10 1014.14 1014.12 1014.15 1014.21 1014.19 1014.23 1014.30 1014.26 1014.50 1014.75 1015.17 1015.68 1016.43 1017.15 1017.48 1018.16 1018.87 1018.87 1019.26 1019.14 1019.73 1019.17 1019.57 1019.88 1019.82 1020.16 1020.67 1020.55 1021.28 1021.55 1021.82 1022.06 1022.31 1022.41 1022.45 1022.85 1023.39 1023.62 1023.76 1023.55
1014.38 1013.95 1013.73 1013.57 1013.51 1013.49 1013.50 1013.63 1013.72 1013.76 1013.86 1013.95 1014.14 1014.25 1014.80 1015.43 1015.99 1016.57 1017.23 1018.07 1018.86 1019.34 1019.58 1019.65 1019.48 1019.84 1019.73 1020.45 1020.46 1020.72 1020.98 1021.69 1021.87 1021.93 1022.15 1022.38 1022.51 1022.60 1023.01 1023.38 1023.76 1023.54 1023.54
1013.97 1013.52 1013.20 1013.02 1012.90 1012.94 1013.03 1013.09 1013.19 1013.15 1013.16 1013.23 1013.38 1013.54 1013.88 1014.54 1015.14 1015.80 1016.34 1017.37 1018.69 1019.02 1019.56 1019.75 1019.60 1019.97 1019.83 1020.36 1020.61 1020.65 1021.21 1021.79 1021.97 1022.14 1022.24 1022.52 1022.86 1023.16 1023.37 1023.64 1023.66 1023.91 1023.65
1013.48 1012.97 1012.65 1012.53 1012.28 1012.34 1012.38 1012.42 1012.54 1012.52 1012.51 1012.63 1012.83 1013.00 1013.21 1013.61 1014.07 1014.93 1015.57 1015.99 1017.00 1018.41 1019.19 1019.50 1019.74 1019.68 1020.03 1020.39 1020.54 1021.10 1021.57 1021.54 1021.93 1022.23 1022.60 1022.79 1023.49 1023.66 1023.60 1023.82 1024.09 1024.01 1023.90
1013.09 1012.62 1012.29 1012.05 1011.84 1011.65 1011.63 1011.77 1011.80 1011.79 1011.83 1011.85 1012.07 1012.45 1012.88 1013.26 1013.67 1014.45 1015.13 1015.69 1015.91 1017.06 1018.07 1018.71 1019.42 1019.94 1019.96 1020.19 1020.61 1021.34 1021.76 1022.00 1022.21 1022.46 1022.99 1023.24 1023.64 1023.75 1023.45 1023.88 1024.23 1023.98 1023.83
1012.75 1012.26 1011.90 1011.73 1011.47 1011.08 1010.84 1010.87 1010.96 1011.01 1011.16 1011.21 1011.39 1011.79 1012.11 1012.66 1013.33 1014.03 1014.75 1015.22 1015.95 1016.73 1017.47 1019.09 1019.50 1020.05 1020.51 1020.53 1021.02 1021.80 1021.91 1022.15 1022.63 1022.82 1022.97 1023.14 1023.35 1023.46 1023.36 1023.94 1023.86 1023.75 1023.88
1012.42 1011.90 1011.41 1010.88 1010.47 1010.22 1010.06 1010.06 1010.07 1010.22 1010.39 1010.57 1010.83 1011.32 1011.66 1012.23 1012.81 1013.53 1014.18 1014.77 1015.56 1016.04 1017.15 1018.56 1019.87 1020.14 1020.58 1020.97 1021.61 1022.04 1022.06 1022.48 1023.04 1023.07 1022.93 1022.95 1023.15 1023.30 1023.60 1023.64 1023.59 1023.59 1023.58
1012.28 1011.57 1010.94 1010.17 1009.53 1009.34 1009.34 1009.45 1009.62 1009.68 1009.74 1010.05 1010.42 1010.87 1011.25 1011.66 1012.40 1013.20 1013.84 1014.48 1015.30 1016.02 1016.94 1017.74 1019.18 1020.14 1020.86 1021.24 1022.07 1022.42 1022.50 1022.97 1022.97 1023.00 1022.82 1023.00 1023.03 1023.32 1023.40 1023.31 1023.33 1023.28 1023.30
1012.10 1011.24 1010.41 1009.56 1009.11 1008.82 1008.73 1008.77 1008.88 1009.11 1009.49 1009.87 1010.23 1010.67 1011.11 1011.63 1012.17 1013.03 1013.81 1014.41 1015.13 1016.31 1017.07 1018.02 1019.13 1019.86 1020.64 1021.64 1022.10 1022.61 1023.06 1023.00 1023.22 1023.24 1023.32 1023.32 1023.30 1023.31 1023.15 1023.01 1023.00 1023.03 1023.14
1012.07 1011.32 1010.49 1009.71 1009.11 1008.34 1008.23 1008.50 1008.63 1009.00 1009.66 1010.34 1010.88 1010.77 1011.36 1011.72 1012.06 1012.66 1013.37 1014.25 1014.91 1016.22 1017.11 1018.06 1019.14 1019.70 1020.78 1021.60 1021.95 1022.38 1022.95 1023.30 1023.63 1023.60 1023.59 1023.59 1023.51 1023.48 1023.32 1023.01 1023.01 1022.88 1022.73
1012.26 1011.75 1010.95 1010.22 1009.56 1009.01 1008.70 1008.56 1008.96 1009.45 1010.02 1010.67 1011.37 1011.79 1012.00 1012.41 1012.80 1013.14 1013.63 1014.16 1015.06 1015.59 1016.91 1017.92 1018.95 1019.38 1020.21 1020.97 1021.70 1022.39 1022.86 1023.46 1023.60 1023.40 1023.48 1023.45 1023.42 1023.30 1023.14 1023.06 1022.88 1022.71 1022.54
1012.75 1012.25 1011.68 1010.96 1010.48 1010.28 1009.98 1009.79 1009.96 1010.39 1010.88 1011.60 1012.06 1012.50 1012.80 1013.24 1013.39 1013.84 1014.17 1014.54 1015.70 1016.40 1016.57 1017.19 1018.24 1019.24 1020.10 1020.51 1021.14 1022.21 1022.50 1022.65 1023.07 1023.32 1023.57 1023.47 1023.43 1023.28 1022.90 1022.70 1022.52 1022.51 1022.33
1013.38 1012.97 1012.63 1012.22 1011.73 1011.46 1011.20 1010.79 1010.97 1011.39 1011.96 1012.67 1012.99 1013.23 1013.54 1013.95 1014.29 1014.67 1014.96 1016.00 1016.49 1016.70 1017.15 1017.53 1018.10 1019.01 1019.34 1020.23 1020.84 1021.49 1022.01 1022.70 1023.06 1023.30 1023.43 1023.58 1023.43 1023.18 1022.82 1022.66 1022.23 1022.00 1021.88
1014.13 1013.76 1013.48 1013.10 1012.88 1012.65 1012.47 1012.10 1011.64 1012.48 1013.05 1013.56 1013.96 1014.27 1014.64 1014.64 1015.02 1015.46 1015.77 1016.74 1017.09 1017.45 1017.61 1017.95 1018.50 1019.02 1019.53 1020.18 1021.06 1021.41 1022.15 1022.76 1023.29 1023.37 1023.49 1023.49 1023.42 1023.27 1022.81 1022.46 1022.12 1021.85 1021.83
1014.89 1014.64 1014.40 1014.10 1013.84 1013.58 1013.27 1013.08 1012.93 1013.25 1013.87 1014.30 1014.83 1015.10 1015.31 1015.46 1015.93 1016.31 1016.55 1017.21 1017.80 1018.50 1018.72 1019.14 1019.58 1019.95 1020.44 1020.76 1021.05 1021.50 1022.12 1022.76 1023.14 1023.38 1023.19 1023.49 1023.61 1023.63 1023.00 1022.29 1022.02 1021.95 1021.99
Wind_Speed
2 2 2 2 2 2 2 3 3 3 4 5 4 5 5 5 5 3 3 8 11 12 17 17 16 15 14 14 13 12 11 10 10 9 8 8 7 6 5 6 5 6 5
3 3 2 3 2 3 1 1 3 2 2 2 5 4 3 4 5 5 3 4 9 11 16 16 15 14 14 15 14 14 12 11 9 9 9 7 8 7 6 5 5 5 5
4 3 2 2 2 1 3 3 2 3 3 3 6 5 3 3 3 4 4 3 4 10 17 19 18 18 16 15 14 13 12 12 11 8 8 8 7 6 6 6 5 5 6
6 4 3 3 2 3 3 2 2 1 2 3 3 3 3 5 9 8 5 4 4 6 10 14 17 18 16 16 16 15 14 12 10 10 9 8 8 7 7 7 6 5 5
5 4 4 3 3 3 3 3 2 3 3 3 1 3 2 3 1 3 6 8 7 7 7 12 12 14 17 17 16 16 14 12 12 10 9 7 7 7 7 6 5 4 4
6 4 3 4 4 3 3 2 2 2 3 4 2 2 2 1 2 2 4 5 6 7 7 9 6 6 13 17 16 16 16 15 11 11 10 8 7 8 7 6 5 3 2
5 5 4 4 4 4 5 6 3 4 1 4 3 1 2 3 4 3 3 3 5 4 4 6 6 6 6 16 16 16 16 16 14 11 9 8 8 8 7 6 5 3 1
5 4 4 4 7 4 4 5 5 3 2 5 3 2 2 1 1 3 3 3 5 4 6 7 6 4 4 3 6 15 15 13 13 11 9 9 9 8 6 5 4 3 1
5 4 5 4 7 5 6 6 7 8 5 5 4 3 2 3 1 2 3 4 2 2 3 4 7 6 5 4 5 7 12 13 11 11 10 10 9 8 7 6 4 3 3
7 5 5 5 7 5 7 8 7 7 6 7 1 1 0 2 4 3 1 1 4 0 2 4 5 5 6 4 8 10 10 8 11 11 10 10 10 9 9 8 5 5 5
5 6 5 5 5 6 6 7 6 8 8 7 7 3 2 1 2 3 1 1 1 2 1 2 4 5 6 7 7 8 14 11 11 10 10 10 11 11 8 6 6 6 7
4 6 6 5 5 5 7 7 8 9 9 9 8 6 5 4 3 2 3 2 2 1 1 0 3 3 2 5 7 11 10 9 8 9 11 12 11 9 7 7 7 8 8
4 6 5 6 5 6 6 6 7 8 9 9 10 8 7 6 4 3 3 2 2 1 1 1 2 2 5 2 5 8 10 10 11 11 11 11 9 7 7 7 9 8 9
7 8 7 6 7 6 6 6 6 7 8 9 11 10 7 7 5 5 4 5 2 0 1 3 1 3 3 4 5 11 5 11 9 10 8 7 4 4 5 7 8 9 9
7 8 7 8 6 6 7 7 6 9 10 9 9 10 8 8 7 7 4 3 5 4 7 4 3 4 4 4 6 5 5 9 9 6 4 3 4 4 5 6 8 9 7
8 7 8 8 8 7 8 8 7 8 11 9 8 10 9 5 7 6 6 6 4 6 4 2 2 1 4 5 6 5 4 6 8 7 6 5 5 5 3 7 9 7 6
9 9 10 9 10 11 10 10 10 9 11 11 9 11 11 10 8 7 6 6 4 3 3 2 2 2 2 6 5 4 4 5 2 6 6 5 5 5 5 9 7 7 8
9 10 11 12 12 11 9 10 10 9 11 12 10 11 10 8 9 9 8 9 7 5 3 5 1 2 2 3 4 5 3 3 3 2 4 6 6 7 8 9 9 9 9
10 10 10 11 9 9 9 8 9 9 11 10 9 11 10 11 9 7 8 8 6 5 3 5 4 2 3 3 4 3 3 2 1 4 6 9 9 8 8 8 10 9 9
10 10 10 8 7 9 9 9 10 7 5 4 7 8 9 10 10 9 7 9 9 6 6 6 3 4 3 2 3 3 2 1 1 1 3 4 4 5 7 9 9 6 6
9 10 8 7 7 4 5 5 7 9 9 8 7 5 5 4 8 10 8 9 9 6 7 5 2 3 3 4 4 3 2 2 1 1 1 2 1 2 4 6 3 6 7
9 9 8 6 6 4 7 13 10 8 8 9 9 8 8 13 12 15 16 15 10 10 6 5 3 5 4 4 3 3 3 3 3 1 1 2 1 2 3 3 7 8 10
9 9 9 7 9 7 15 17 17 8 9 8 8 8 7 7 11 11 17 17 11 7 7 5 6 4 5 6 6 4 4 3 3 2 1 2 1 2 3 4 9 12 14
8 7 8 8 8 8 13 20 20 12 10 10 9 9 8 8 9 10 11 10 8 7 5 4 6 6 4 7 6 4 5 4 3 2 1 1 0 3 2 3 9 9 8
8 8 8 9 8 8 13 15 17 10 11 11 9 9 7 9 16 17 13 11 11 10 15 18 17 17 16 13 9 5 3 3 1 2 0 1 2 3 2 2 2 4 2
7 7 8 8 12 8 15 16 12 7 10 8 8 9 14 10 15 15 11 10 12 6 8 8 7 10 9 8 7 3 4 3 2 2 1 1 1 2 4 1 2 2 3
Wind_Direction
268 253 266 281 287 273 238 234 234 215 218 210 218 192 185 206 229 225 228 214 212 204 187 167 167 167 165 158 158 154 153 161 162 164 160 159 159 127 123 108 114 97 86
292 264 236 240 228 213 216 208 173 163 139 87 32 301 239 230 220 223 208 200 221 202 171 173 165 170 168 159 160 160 160 159 163 170 171 164 136 155 132 124 99 100 87
313 278 251 241 246 298 148 149 167 149 160 162 172 165 300 232 229 208 202 189 204 184 167 177 168 173 177 166 169 165 166 168 153 158 165 168 151 137 127 120 114 100 88
316 280 248 244 220 195 204 195 183 203 199 191 164 169 211 225 194 189 182 167 150 163 161 184 180 174 174 169 174 171 158 163 165 170 162 153 146 151 157 135 129 118 116
319 281 258 246 221 203 183 178 198 195 177 204 116 72 9 313 273 219 195 161 162 172 162 163 160 171 191 182 176 172 164 159 163 163 164 158 159 173 165 140 127 126 116
317 304 262 242 226 220 197 161 176 209 182 173 112 68 50 31 337 276 218 163 167 175 156 162 172 193 196 178 174 173 165 160 161 163 173 169 187 189 151 146 138 122 104
305 293 262 238 215 217 218 184 152 183 152 139 103 16 35 26 30 356 318 202 159 155 163 165 173 163 187 186 174 179 167 166 163 172 171 180 197 176 165 163 146 127 173
290 289 275 226 236 215 214 200 173 152 127 188 134 112 207 242 22 17 334 272 171 161 153 142 127 139 137 142 163 170 169 167 165 166 188 189 188 179 172 172 171 171 247
280 276 275 248 245 218 217 207 196 189 187 199 224 154 125 229 76 26 1 345 258 176 148 157 156 160 136 132 160 164 163 157 171 176 185 185 186 175 184 197 212 240 262
267 251 250 251 248 241 224 216 205 193 186 203 197 201 297 111 168 188 189 0 15 256 273 171 163 142 123 134 128 128 121 155 181 183 187 190 191 195 203 204 221 241 263
287 282 246 245 235 246 240 222 201 207 198 199 204 146 162 207 53 132 138 42 335 36 319 262 138 141 149 153 140 155 149 172 184 192 201 204 205 204 207 222 235 247 253
288 270 260 234 231 222 231 227 224 215 201 203 196 173 172 160 200 142 128 168 173 137 47 253 114 116 98 127 129 140 134 176 188 202 210 216 210 205 203 225 243 250 248
280 272 261 251 229 224 217 216 217 217 210 207 197 195 190 192 167 143 129 118 157 153 194 208 125 176 139 96 140 137 151 199 205 207 215 216 208 193 204 231 248 258 260
273 267 259 244 240 229 227 223 229 226 218 216 213 208 189 191 175 150 166 150 131 103 225 227 144 196 143 150 178 155 169 185 191 221 218 224 183 211 240 252 262 269 265
270 263 250 256 244 231 219 216 226 243 236 219 220 212 195 189 173 180 153 165 168 159 218 211 180 182 145 158 178 146 160 175 189 182 181 141 190 234 253 269 268 265 268
272 277 277 268 261 238 224 218 218 229 241 226 212 209 203 182 171 176 183 181 183 193 202 133 175 23 160 158 162 132 151 154 164 168 184 191 212 230 254 267 259 259 266
293 288 282 271 261 252 233 221 221 216 232 228 206 214 200 170 177 168 173 163 161 155 126 90 98 83 104 140 123 131 134 105 93 195 196 206 226 249 255 249 238 248 264
301 291 281 269 251 247 234 222 226 221 226 220 203 205 195 173 177 175 177 178 182 137 135 120 134 120 106 104 117 116 116 110 136 221 221 218 232 247 253 239 230 256 262
303 294 282 277 258 242 231 222 229 228 219 213 200 199 179 169 172 170 177 165 147 123 133 132 129 87 97 91 90 77 88 110 216 240 242 228 227 233 233 237 250 266 264
312 310 304 288 283 250 225 229 223 207 167 168 173 182 171 179 175 165 165 160 136 129 104 105 104 116 95 83 89 134 155 83 205 322 255 229 222 246 253 252 253 257 260
328 323 327 338 340 296 224 160 140 134 120 99 82 85 77 122 151 168 155 142 136 128 128 113 112 103 129 155 176 152 148 115 227 204 233 266 249 284 279 268 250 259 257
344 338 344 359 11 14 68 114 109 113 99 114 106 89 99 92 98 116 117 119 134 137 143 126 157 154 148 144 123 147 121 158 216 212 145 274 171 254 244 232 253 269 265
1 360 3 26 40 53 88 91 88 79 86 82 102 103 91 95 102 101 106 101 113 132 145 136 140 152 143 164 137 149 167 140 169 174 157 264 214 260 240 250 263 282 278
16 18 18 32 48 58 89 95 91 80 78 73 73 80 86 87 93 100 94 90 82 74 100 112 123 138 125 130 127 150 143 118 78 60 95 254 300 257 266 268 288 284 255
23 32 29 36 39 59 75 93 92 85 81 76 72 75 87 98 114 117 99 96 86 79 86 96 103 110 116 123 130 110 97 100 157 190 337 89 345 307 285 288 284 296 235
35 30 36 35 50 49 61 69 80 92 88 87 80 83 91 102 116 115 112 119 105 87 103 89 80 80 80 106 105 87 142 126 109 8 197 95 300 340 317 252 259 247 288